When you browse on this site, cookies collect data to enhance your experience and personalize the content and advertising you see.
Visit our Privacy Policy to learn more. By continuing to use the site, you agree to this use of cookies and data.
  • In Hungary
  • List of Countries
  • For 7 days
  • Water Temperature
  • Satellite Maps
  • Weather Map
  • News
  • Weather Widgets
  • user-avatar
    Login

    Hourly Weather Diurbel

    Today, 17 December, Monday

    Time Temperature Precipitation Wind Pressure Humidity
    00:00 +23°C° 0 mm 6 mps 736 mmHg 14%
    01:00 +23°C° 0 mm 6 mps 736 mmHg 14%
    02:00 +22°C° 0 mm 6 mps 736 mmHg 15%
    03:00 +21°C° 0 mm 7 mps 736 mmHg 16%
    04:00 +20°C° 0 mm 7 mps 736 mmHg 17%
    05:00 +20°C° 0 mm 7 mps 736 mmHg 18%
    06:00 +18°C° 0 mm 7 mps 736 mmHg 18%
    07:00 +18°C° 0 mm 7 mps 736 mmHg 19%
    08:00 +21°C° 0 mm 8 mps 737 mmHg 18%
    09:00 +23°C° 0 mm 9 mps 737 mmHg 16%
    10:00 +24°C° 0 mm 10 mps 737 mmHg 14%
    11:00 +27°C° 0 mm 10 mps 737 mmHg 13%
    12:00 +28°C° 0 mm 10 mps 736 mmHg 12%
    13:00 +31°C° 0 mm 9 mps 736 mmHg 11%
    14:00 +31°C° 0 mm 9 mps 735 mmHg 11%
    15:00 +31°C° 0 mm 9 mps 735 mmHg 12%
    16:00 +31°C° 0 mm 9 mps 734 mmHg 12%
    17:00 +28°C° 0 mm 8 mps 735 mmHg 13%
    18:00 +26°C° 0 mm 7 mps 735 mmHg 15%
    19:00 +24°C° 0 mm 6 mps 735 mmHg 16%
    20:00 +23°C° 0 mm 6 mps 736 mmHg 17%
    21:00 +22°C° 0 mm 6 mps 736 mmHg 18%
    22:00 +22°C° 0 mm 7 mps 736 mmHg 19%
    23:00 +21°C° 0 mm 7 mps 736 mmHg 21%

    Tomorrow, 18 December, Tuesday

    Time Temperature Precipitation Wind Pressure Humidity
    00:00 +20°C° 0 mm 7 mps 736 mmHg 22%
    01:00 +20°C° 0 mm 7 mps 736 mmHg 24%
    02:00 +18°C° 0 mm 7 mps 736 mmHg 25%
    03:00 +17°C° 0 mm 7 mps 735 mmHg 26%
    04:00 +17°C° 0 mm 7 mps 735 mmHg 27%
    05:00 +17°C° 0 mm 7 mps 735 mmHg 27%
    06:00 +16°C° 0 mm 7 mps 736 mmHg 27%
    07:00 +16°C° 0 mm 8 mps 736 mmHg 27%
    08:00 +18°C° 0 mm 8 mps 737 mmHg 24%
    09:00 +21°C° 0 mm 9 mps 737 mmHg 20%
    10:00 +23°C° 0 mm 9 mps 737 mmHg 17%
    11:00 +26°C° 0 mm 9 mps 737 mmHg 15%
    12:00 +28°C° 0 mm 9 mps 736 mmHg 13%
    13:00 +29°C° 0 mm 8 mps 735 mmHg 12%
    14:00 +29°C° 0 mm 8 mps 735 mmHg 11%
    15:00 +29°C° 0 mm 8 mps 735 mmHg 11%
    16:00 +29°C° 0 mm 7 mps 734 mmHg 11%
    17:00 +27°C° 0 mm 7 mps 735 mmHg 12%
    18:00 +24°C° 0 mm 6 mps 735 mmHg 14%
    19:00 +23°C° 0 mm 5 mps 735 mmHg 15%
    20:00 +22°C° 0 mm 6 mps 735 mmHg 16%
    21:00 +21°C° 0 mm 6 mps 736 mmHg 17%
    22:00 +21°C° 0 mm 6 mps 736 mmHg 17%
    23:00 +20°C° 0 mm 6 mps 736 mmHg 19%

    Day after tomorrow, 19 December, Wednesday

    Time Temperature Precipitation Wind Pressure Humidity
    00:00 +19°C° 0 mm 6 mps 736 mmHg 20%
    01:00 +19°C° 0 mm 6 mps 735 mmHg 21%
    02:00 +17°C° 0 mm 6 mps 735 mmHg 23%
    03:00 +16°C° 0 mm 6 mps 735 mmHg 24%
    04:00 +16°C° 0 mm 6 mps 735 mmHg 26%
    05:00 +16°C° 0 mm 6 mps 735 mmHg 26%
    06:00 +16°C° 0 mm 6 mps 736 mmHg 27%
    07:00 +15°C° 0 mm 6 mps 736 mmHg 27%
    08:00 +18°C° 0 mm 7 mps 737 mmHg 24%
    09:00 +21°C° 0 mm 8 mps 737 mmHg 20%
    10:00 +24°C° 0 mm 9 mps 738 mmHg 16%
    11:00 +26°C° 0 mm 9 mps 737 mmHg 14%
    12:00 +27°C° 0 mm 9 mps 736 mmHg 12%
    13:00 +29°C° 0 mm 9 mps 735 mmHg 11%
    14:00 +29°C° 0 mm 8 mps 735 mmHg 11%
    15:00 +29°C° 0 mm 8 mps 734 mmHg 11%
    16:00 +29°C° 0 mm 8 mps 734 mmHg 11%
    17:00 +27°C° 0 mm 7 mps 734 mmHg 13%
    18:00 +24°C° 0 mm 6 mps 735 mmHg 15%
    19:00 +23°C° 0 mm 5 mps 735 mmHg 17%
    20:00 +22°C° 0 mm 6 mps 735 mmHg 19%
    21:00 +21°C° 0 mm 6 mps 736 mmHg 20%
    22:00 +20°C° 0 mm 6 mps 736 mmHg 22%
    23:00 +20°C° 0 mm 6 mps 736 mmHg 24%

    20 December, Thursday

    Time Temperature Precipitation Wind Pressure Humidity
    00:00 +19°C° 0 mm 6 mps 735 mmHg 25%
    01:00 +19°C° 0 mm 6 mps 735 mmHg 27%
    02:00 +17°C° 0 mm 6 mps 735 mmHg 29%
    03:00 +17°C° 0 mm 7 mps 735 mmHg 31%
    04:00 +16°C° 0 mm 7 mps 735 mmHg 33%
    05:00 +16°C° 0 mm 7 mps 735 mmHg 33%
    06:00 +16°C° 0 mm 7 mps 735 mmHg 33%
    07:00 +16°C° 0 mm 7 mps 736 mmHg 33%
    08:00 +18°C° 0 mm 8 mps 736 mmHg 28%
    09:00 +21°C° 0 mm 9 mps 737 mmHg 23%
    10:00 +24°C° 0 mm 9 mps 737 mmHg 18%
    11:00 +26°C° 0 mm 9 mps 736 mmHg 17%
    12:00 +27°C° 0 mm 9 mps 736 mmHg 15%
    13:00 +29°C° 0 mm 8 mps 735 mmHg 13%
    14:00 +29°C° 0 mm 8 mps 734 mmHg 13%
    15:00 +29°C° 0 mm 8 mps 734 mmHg 13%
    16:00 +29°C° 0 mm 7 mps 734 mmHg 13%
    17:00 +27°C° 0 mm 6 mps 734 mmHg 15%
    18:00 +24°C° 0 mm 6 mps 735 mmHg 17%
    19:00 +23°C° 0 mm 5 mps 735 mmHg 19%
    20:00 +22°C° 0 mm 5 mps 735 mmHg 21%
    21:00 +21°C° 0 mm 5 mps 736 mmHg 22%
    22:00 +21°C° 0 mm 5 mps 736 mmHg 24%
    23:00 +20°C° 0 mm 6 mps 736 mmHg 26%

    21 December, Friday

    Time Temperature Precipitation Wind Pressure Humidity
    00:00 +20°C° 0 mm 6 mps 735 mmHg 28%
    01:00 +19°C° 0 mm 6 mps 735 mmHg 30%
    02:00 +19°C° 0 mm 6 mps 735 mmHg 31%
    03:00 +17°C° 0 mm 6 mps 735 mmHg 33%
    04:00 +17°C° 0 mm 6 mps 734 mmHg 34%
    05:00 +16°C° 0 mm 6 mps 735 mmHg 35%
    06:00 +16°C° 0 mm 6 mps 735 mmHg 35%
    07:00 +16°C° 0 mm 6 mps 735 mmHg 35%
    08:00 +18°C° 0 mm 7 mps 736 mmHg 31%
    09:00 +21°C° 0 mm 7 mps 736 mmHg 26%
    10:00 +23°C° 0 mm 8 mps 737 mmHg 22%
    11:00 +26°C° 0 mm 8 mps 736 mmHg 19%
    12:00 +28°C° 0 mm 8 mps 735 mmHg 16%
    13:00 +29°C° 0 mm 7 mps 734 mmHg 14%
    14:00 +29°C° 0 mm 7 mps 734 mmHg 13%
    15:00 +29°C° 0 mm 7 mps 734 mmHg 13%
    16:00 +29°C° 0 mm 6 mps 733 mmHg 13%
    17:00 +27°C° 0 mm 6 mps 734 mmHg 15%
    18:00 +25°C° 0 mm 5 mps 734 mmHg 16%
    19:00 +23°C° 0 mm 5 mps 734 mmHg 18%
    20:00 +22°C° 0 mm 5 mps 735 mmHg 19%
    21:00 +21°C° 0 mm 5 mps 735 mmHg 19%
    22:00 +21°C° 0 mm 6 mps 735 mmHg 20%
    23:00 +20°C° 0 mm 6 mps 735 mmHg 20%

    22 December, Saturday

    Time Temperature Precipitation Wind Pressure Humidity
    00:00 +20°C° 0 mm 6 mps 735 mmHg 21%
    01:00 +19°C° 0 mm 6 mps 734 mmHg 21%
    02:00 +17°C° 0 mm 6 mps 734 mmHg 22%
    03:00 +17°C° 0 mm 6 mps 734 mmHg 22%
    04:00 +16°C° 0 mm 6 mps 734 mmHg 23%
    05:00 +16°C° 0 mm 6 mps 734 mmHg 23%
    06:00 +16°C° 0 mm 6 mps 734 mmHg 23%
    07:00 +16°C° 0 mm 6 mps 735 mmHg 24%
    08:00 +19°C° 0 mm 6 mps 735 mmHg 21%
    09:00 +21°C° 0 mm 7 mps 735 mmHg 18%
    10:00 +23°C° 0 mm 7 mps 736 mmHg 15%
    11:00 +26°C° 0 mm 7 mps 735 mmHg 14%
    12:00 +28°C° 0 mm 7 mps 734 mmHg 12%
    13:00 +29°C° 0 mm 7 mps 734 mmHg 10%
    14:00 +29°C° 0 mm 7 mps 734 mmHg 10%
    15:00 +29°C° 0 mm 7 mps 733 mmHg 11%
    16:00 +29°C° 0 mm 7 mps 733 mmHg 11%
    17:00 +27°C° 0 mm 6 mps 733 mmHg 13%
    18:00 +24°C° 0 mm 6 mps 734 mmHg 14%
    19:00 +22°C° 0 mm 5 mps 734 mmHg 16%
    20:00 +22°C° 0 mm 5 mps 734 mmHg 17%
    21:00 +21°C° 0 mm 5 mps 735 mmHg 18%
    22:00 +21°C° 0 mm 6 mps 735 mmHg 19%
    23:00 +20°C° 0 mm 6 mps 735 mmHg 20%
    Show more